TimeMDT,TemperatureF,Dew PointF,Humidity,Sea Level PressureIn,VisibilityMPH,Wind Direction,Wind SpeedMPH,Gust SpeedMPH,PrecipitationIn,Events,Conditions,WindDirDegrees,DateUTC
12:54 AM,73.0,51.1,46,29.77,10.0,WSW,12.7,-,N/A,,Clear,250,2013-07-22 06:54:00
1:54 AM,71.1,52.0,51,29.76,10.0,WSW,15.0,-,N/A,,Clear,240,2013-07-22 07:54:00
2:54 AM,69.1,52.0,54,29.75,10.0,WSW,17.3,-,N/A,,Clear,250,2013-07-22 08:54:00
3:54 AM,68.0,51.1,55,29.74,10.0,WSW,18.4,-,N/A,,Clear,240,2013-07-22 09:54:00
4:54 AM,68.0,48.9,50,29.74,10.0,WSW,18.4,25.3,N/A,,Clear,240,2013-07-22 10:54:00
5:54 AM,64.9,48.9,56,29.78,10.0,Calm,Calm,-,N/A,,Clear,0,2013-07-22 11:54:00
6:54 AM,68.0,46.9,47,29.78,10.0,West,9.2,-,N/A,,Clear,270,2013-07-22 12:54:00
7:54 AM,73.0,48.0,41,29.80,10.0,West,9.2,-,N/A,,Clear,260,2013-07-22 13:54:00
8:54 AM,79.0,48.0,34,29.79,10.0,WNW,9.2,-,N/A,,Clear,290,2013-07-22 14:54:00
9:54 AM,87.1,41.0,20,29.76,10.0,West,11.5,-,N/A,,Clear,280,2013-07-22 15:54:00
10:54 AM,89.1,39.9,18,29.78,10.0,Variable,6.9,-,N/A,,Clear,0,2013-07-22 16:54:00
11:54 AM,93.0,36.0,13,29.75,10.0,Variable,4.6,-,N/A,,Clear,0,2013-07-22 17:54:00
12:54 PM,95.0,33.1,11,29.74,10.0,NNE,9.2,-,N/A,,Clear,20,2013-07-22 18:54:00
1:54 PM,95.0,34.0,12,29.74,10.0,NNW,11.5,-,N/A,,Clear,340,2013-07-22 19:54:00
2:54 PM,91.9,32.0,12,29.74,10.0,NNW,3.5,-,N/A,,Clear,340,2013-07-22 20:54:00
3:54 PM,89.1,37.9,16,29.75,10.0,WNW,15.0,24.2,N/A,,Clear,300,2013-07-22 21:54:00
4:54 PM,91.9,34.0,13,29.73,10.0,WNW,8.1,-,N/A,,Clear,300,2013-07-22 22:54:00
5:54 PM,89.1,39.9,18,29.75,10.0,NW,6.9,-,N/A,,Clear,320,2013-07-22 23:54:00
6:54 PM,87.1,45.0,23,29.75,10.0,North,3.5,-,N/A,,Clear,350,2013-07-23 00:54:00
7:54 PM,84.9,39.9,20,29.75,10.0,Calm,Calm,-,N/A,,Clear,0,2013-07-23 01:54:00
8:54 PM,82.0,39.0,22,29.77,10.0,Calm,Calm,-,N/A,,Clear,0,2013-07-23 02:54:00
9:54 PM,75.0,45.0,34,29.79,10.0,WNW,6.9,-,N/A,,Clear,300,2013-07-23 03:54:00
10:54 PM,71.1,46.0,41,29.80,10.0,West,11.5,-,N/A,,Clear,260,2013-07-23 04:54:00
11:54 PM,72.0,46.0,40,29.80,10.0,West,12.7,-,N/A,,Clear,280,2013-07-23 05:54:00